Location: Kuppenheim
(48.8299°N, 8.2568°E)
Time: 13:38:31
(UTC+00:00)

ADEOS II - Pass Details

Date: 20 June 2021
Orbit: 799 x 800 km, 98.6° (Epoch: 29 July)

Event Time Altitude Azimuth Distance (km) Brightness Sun altitude
Rises 01:24:26 0° 17° (NNE) 3,322 7.2 -13.2°
Reaches altitude 10° 01:26:49 10° 22° (NNE) 2,387 6.0 -13.1°
Maximum altitude 01:32:01 56° 101° (E) 947 2.6 -12.7°
Enters shadow 01:36:48 12° 178° (S) 2,234 3.9 -12.3°
